Theta_e
323 322 323 327 326 327 330 336 338 337 334 346 347 348 348 346 347 347 347 347 347 347 347 347 346 346 346 345 347 348 347 347 348 347 347 346 344 345 345 345 346 348 347 348
321 323 325 329 330 329 328 334 338 339 335 335 347 349 347 347 348 348 348 350 348 349 347 347 347 347 346 346 348 347 347 343 344 345 342 340 337 333 340 342 342 342 342 342
320 323 329 331 331 331 328 336 337 339 339 338 345 347 346 347 347 347 348 350 351 351 350 349 349 347 348 349 346 346 345 345 345 341 338 338 341 337 340 342 342 344 341 337
321 324 327 331 331 330 325 329 337 340 341 341 339 348 342 344 343 341 346 348 350 350 350 351 351 347 348 350 346 347 347 336 332 336 334 338 343 341 334 341 344 340 336 327
322 325 325 327 330 328 327 327 328 340 339 336 342 341 345 337 337 336 342 346 348 349 349 351 351 348 347 351 352 351 335 335 334 331 321 333 341 331 333 338 338 337 329 332
322 326 326 327 329 327 328 329 324 326 326 333 338 336 337 341 340 338 337 346 346 347 349 349 350 348 349 352 353 351 334 333 336 323 327 335 334 327 333 336 335 334 328 328
323 324 325 327 325 325 327 322 323 325 325 325 322 339 337 339 339 336 337 346 346 346 348 349 349 350 350 350 351 348 340 335 335 330 345 322 323 317 318 329 332 327 322 331
321 323 325 325 324 324 323 322 323 328 331 328 325 328 329 338 339 337 338 344 346 346 347 348 346 345 344 348 349 346 341 345 337 338 349 325 323 320 321 322 322 326 334 329
320 322 325 325 326 323 325 325 324 327 328 329 328 331 336 337 338 337 337 340 344 345 346 346 345 344 343 345 347 347 341 340 340 340 328 325 327 320 321 327 332 336 336 328
319 321 323 326 325 325 325 324 327 322 329 331 329 333 334 341 339 338 337 336 339 343 345 345 345 344 344 343 344 346 345 339 341 338 325 324 329 325 320 322 329 327 322 324
320 321 323 325 324 324 328 327 324 323 324 327 328 329 330 339 338 339 338 339 338 341 343 345 345 345 344 344 346 345 347 346 346 345 326 325 331 329 325 325 320 320 322 324
319 318 322 323 324 324 325 325 324 325 327 325 325 330 333 333 333 338 339 341 342 339 342 343 344 345 345 345 347 345 347 347 347 349 329 325 331 329 327 325 322 320 320 322
322 318 323 323 323 325 327 326 326 322 322 326 329 331 331 329 330 333 334 340 341 340 339 341 343 343 344 345 345 345 346 348 349 350 333 326 332 329 326 322 321 319 319 320
325 318 321 324 324 325 326 326 326 325 325 325 328 331 332 332 331 331 333 335 338 338 340 340 342 343 343 343 344 344 346 348 349 349 341 330 330 329 327 322 321 320 320 321
321 321 323 323 326 328 328 328 326 326 325 328 326 330 329 332 332 332 335 335 335 338 340 340 342 344 343 344 345 346 346 347 348 348 345 335 330 333 330 325 323 322 321 323
319 322 323 326 327 327 327 329 328 329 328 329 327 332 329 333 335 334 336 336 337 337 337 341 341 342 345 345 345 345 345 347 350 348 346 336 331 335 333 326 323 323 322 325
322 322 323 325 327 328 330 330 329 331 334 329 327 326 330 332 331 332 333 333 334 333 333 334 342 346 346 347 346 348 348 348 351 349 346 339 335 334 334 328 322 322 323 326
324 322 321 325 325 329 326 330 333 335 334 333 330 331 332 332 334 334 334 333 333 333 332 332 331 333 340 346 350 350 351 351 351 348 343 338 336 333 335 330 322 323 326 328
329 330 332 325 323 326 332 331 334 333 335 335 334 332 330 332 333 333 332 332 331 331 332 332 332 331 333 342 348 352 352 352 351 347 340 337 336 335 335 330 322 324 330 333
328 328 334 334 330 330 331 334 333 331 334 332 333 332 331 333 333 332 333 331 332 335 334 332 331 329 330 336 345 350 352 351 349 346 342 338 335 335 334 324 324 330 335 334
332 332 332 333 333 330 332 335 333 332 332 333 332 332 333 332 333 335 336 336 335 334 333 333 332 330 327 339 345 350 351 351 349 346 340 336 336 335 332 330 331 336 335 335
338 338 335 333 332 333 332 334 339 334 333 333 333 332 332 332 332 331 331 330 330 334 337 336 333 330 334 338 347 349 348 344 342 338 337 337 337 337 339 336 338 335 334 334
338 335 339 338 336 332 331 330 331 331 332 331 332 332 332 332 333 332 332 331 331 327 326 336 338 333 339 345 348 348 343 341 340 339 338 333 334 330 332 334 333 332 334 333
333 333 335 335 333 334 331 329 330 330 330 330 330 330 331 331 332 333 333 334 335 334 328 331 339 338 339 348 348 346 344 342 341 339 334 332 328 325 326 328 333 333 333 332
332 331 334 335 335 331 329 329 328 327 329 329 330 329 329 328 333 336 335 338 337 336 338 340 342 341 346 349 347 345 342 339 336 333 325 325 325 324 324 327 334 332 330 329
330 330 332 333 333 329 328 326 324 324 323 323 323 325 324 326 331 335 334 341 341 341 341 347 348 348 347 345 342 337 327 325 324 325 322 321 322 325 327 330 329 328 327 326
Wind_Speed
6 3 6 9 8 6 4 8 14 11 11 7 15 13 19 25 24 24 27 29 31 35 35 31 27 24 21 20 19 18 19 14 13 10 8 9 6 6 7 6 6 9 9 9
4 7 11 6 5 6 4 7 9 1 10 7 13 18 18 23 28 31 29 31 35 32 33 32 29 26 26 22 19 20 17 15 12 10 9 7 5 5 6 4 7 8 6 6
7 8 6 5 8 5 6 8 10 11 5 7 11 1 9 15 22 25 27 39 41 38 37 35 31 26 27 25 22 21 17 17 14 12 10 8 8 7 8 7 8 6 6 8
6 14 9 8 8 6 8 10 14 9 15 7 7 5 7 16 15 12 23 31 37 40 38 37 33 28 30 29 24 21 19 18 16 13 12 11 10 11 11 7 9 7 7 9
9 10 12 11 16 7 12 8 11 11 15 7 3 5 11 8 9 11 20 36 43 43 43 43 39 33 30 30 27 22 23 20 17 16 13 11 13 13 12 10 10 9 7 3
10 17 8 11 18 10 13 5 6 5 5 2 12 7 4 10 25 20 17 33 36 43 46 45 40 36 32 33 29 26 27 24 20 16 12 14 13 14 14 14 13 12 14 8
4 16 12 12 7 8 4 6 2 2 1 6 8 9 12 20 24 17 22 35 40 45 47 48 44 42 38 38 35 31 30 28 25 20 18 15 14 10 13 17 17 17 11 9
9 11 14 6 11 11 8 10 6 7 3 6 9 7 11 17 35 33 34 44 43 43 48 52 49 47 43 41 39 36 35 33 29 25 24 19 9 7 10 12 10 9 9 11
6 8 8 11 12 10 9 4 10 7 1 3 4 8 7 7 16 21 26 32 39 43 47 52 52 48 47 46 44 43 40 38 33 30 28 21 11 9 10 9 8 11 13 12
8 5 8 14 5 7 16 7 3 3 7 4 5 4 6 5 11 11 12 25 37 40 45 49 53 52 50 49 47 45 44 42 37 33 30 23 16 11 10 11 11 12 13 11
13 5 15 2 6 11 2 3 4 6 5 6 3 6 7 16 17 17 17 32 33 42 48 51 53 54 53 52 51 49 47 44 40 36 32 25 21 16 10 9 10 10 10 9
10 7 14 18 12 8 9 10 7 6 5 2 5 6 5 13 12 23 26 32 35 41 47 52 54 54 56 56 56 53 51 47 42 39 34 29 23 17 12 11 11 9 7 7
12 6 8 9 7 3 8 6 7 5 5 7 6 5 2 5 4 18 23 29 29 30 42 48 50 52 56 59 59 56 54 49 43 40 36 30 27 20 16 15 14 10 10 9
18 6 10 15 9 5 6 8 7 8 5 6 6 5 4 7 10 10 28 32 29 28 31 41 45 53 57 57 60 59 56 51 45 41 39 34 30 23 18 15 13 13 12 11
11 10 7 9 18 10 15 14 9 6 9 9 8 11 10 11 13 20 32 29 25 27 29 37 42 48 50 51 55 57 56 53 47 45 41 36 29 25 21 16 14 15 15 13
6 8 10 17 9 8 8 6 11 7 5 1 7 7 10 21 24 22 33 32 27 22 20 19 29 42 47 49 52 55 58 55 49 44 43 36 30 27 24 17 16 16 18 16
10 7 5 9 7 7 4 5 5 1 4 5 7 12 11 5 7 19 24 24 23 17 11 7 11 29 39 47 51 54 55 55 51 48 42 35 31 27 28 20 17 18 20 18
6 8 3 5 4 5 7 2 13 10 5 7 6 8 19 16 26 25 28 25 18 14 11 9 8 11 20 33 47 50 52 55 49 45 36 34 31 27 30 22 21 22 22 20
2 5 4 5 5 4 3 4 6 7 4 6 3 7 12 30 21 6 19 18 15 14 12 10 11 15 18 23 39 48 49 51 47 44 34 36 31 30 30 25 24 24 23 22
10 8 5 3 6 4 2 6 7 8 6 8 8 9 8 14 7 3 14 17 14 17 12 7 12 15 18 21 26 39 46 48 50 46 34 36 33 31 29 27 26 24 22 22
5 5 4 3 4 1 5 8 1 8 6 9 18 16 14 7 7 11 16 16 10 7 9 11 15 16 17 19 25 36 44 46 41 35 32 31 30 34 32 27 24 22 22 24
4 3 3 4 4 4 22 10 7 4 15 22 20 20 20 15 15 14 10 8 4 12 18 19 21 20 18 19 26 36 41 43 37 31 30 21 18 31 36 25 22 21 24 26
3 5 4 4 3 6 17 13 18 19 24 29 26 20 17 13 9 3 3 7 13 16 12 24 27 23 22 25 30 35 38 35 34 30 23 9 11 17 31 11 20 25 26 24
5 2 4 6 5 5 8 16 20 27 29 29 28 21 18 16 14 12 9 10 15 21 19 20 30 25 25 27 29 35 33 27 28 21 14 23 15 9 18 25 25 28 22 17
4 2 6 2 2 7 9 7 21 16 15 9 9 9 11 10 16 17 18 14 12 18 20 18 28 27 27 30 30 32 22 14 7 5 2 5 12 15 18 25 22 19 17 14
3 6 5 4 6 6 1 13 15 21 16 11 9 5 13 11 2 3 5 12 10 10 12 13 22 24 25 24 22 17 12 11 6 7 6 8 11 25 19 22 24 21 17 12
Wind_Direction
242 119 216 232 199 196 211 138 179 195 151 125 156 160 175 178 184 191 189 192 192 193 193 194 196 201 199 200 202 201 206 212 212 222 236 236 241 236 232 238 247 247 257 266
305 222 229 228 215 233 217 194 191 193 161 112 164 171 181 181 195 195 190 184 184 188 187 191 195 200 202 201 205 199 197 200 212 222 221 218 221 217 195 211 243 253 265 279
189 242 222 221 268 280 285 194 199 190 147 74 128 176 188 204 200 205 199 189 185 188 188 192 195 198 198 199 193 192 200 210 218 210 212 213 214 217 233 232 245 239 268 301
205 246 241 234 244 186 270 218 215 168 157 161 177 207 240 196 196 204 192 187 188 191 193 194 193 193 196 198 195 197 206 204 200 202 214 223 226 225 239 219 218 228 270 297
231 220 228 238 239 189 241 218 200 168 175 107 191 103 213 138 209 216 199 196 194 198 196 193 194 193 197 200 199 197 196 197 198 205 213 227 226 230 223 215 212 241 283 262
212 251 179 220 247 227 246 253 49 54 98 136 206 158 249 187 208 210 217 201 197 199 199 196 197 194 196 203 206 203 200 202 206 209 219 234 239 246 235 222 225 242 268 251
303 243 248 219 242 272 159 69 312 327 132 204 195 191 234 208 216 203 199 196 198 202 195 196 194 194 193 201 207 209 207 208 211 213 218 225 231 216 223 232 241 253 237 239
218 255 226 216 192 221 201 156 156 195 256 260 136 211 245 201 207 205 199 196 197 195 193 196 198 197 201 204 210 210 211 213 214 215 219 218 222 212 194 194 195 201 229 251
173 247 264 223 225 163 244 146 188 138 84 69 256 300 330 192 195 189 183 184 193 196 193 197 203 203 203 206 209 212 214 215 214 216 217 216 218 230 220 210 214 229 243 262
219 269 246 254 198 246 193 178 94 1 166 202 281 259 229 189 182 192 192 185 192 196 197 200 204 208 208 210 211 214 217 214 212 214 220 217 217 218 217 220 229 238 239 238
197 145 262 23 213 216 89 132 65 122 140 162 226 268 218 199 187 187 199 209 192 195 199 205 210 212 213 213 214 216 217 216 213 214 218 218 219 220 211 215 217 217 221 231
197 175 236 248 249 238 169 174 148 142 230 154 166 263 261 183 184 183 201 206 211 201 202 210 216 214 215 216 215 218 219 218 215 214 217 221 219 221 223 233 234 232 242 252
198 210 236 297 330 345 184 169 145 110 93 184 142 254 134 57 115 178 181 204 211 213 203 208 212 214 217 217 219 218 220 218 216 216 219 215 219 218 224 233 233 237 240 238
174 146 193 226 214 187 201 174 162 142 142 174 203 191 150 176 166 169 173 168 177 184 199 207 215 218 221 220 223 219 220 219 215 217 221 216 217 218 223 228 230 230 228 230
162 187 159 215 223 215 211 194 160 151 183 171 216 180 203 186 177 176 172 174 179 185 190 204 214 218 222 219 222 222 221 221 217 217 221 217 219 219 221 224 226 224 223 231
175 222 156 226 235 221 172 205 170 152 138 10 159 211 198 193 168 172 173 178 182 195 204 217 222 221 222 223 225 225 222 222 215 217 222 217 220 219 225 226 224 223 226 231
155 147 123 215 157 121 89 132 231 307 54 182 176 221 154 156 181 168 164 165 155 149 152 176 231 237 229 227 228 226 224 223 218 218 217 217 215 224 229 228 226 229 233 237
157 127 113 174 110 138 232 207 107 92 4 332 252 181 176 175 179 171 160 150 156 157 182 194 231 233 237 240 233 230 228 225 217 216 216 214 215 226 229 230 231 233 237 241
17 109 87 134 142 200 36 56 150 133 337 320 183 92 131 141 134 156 172 169 160 170 172 204 237 253 252 242 234 230 227 222 218 216 223 222 218 230 232 235 236 237 241 247
48 60 97 79 120 156 231 294 24 99 19 325 73 95 111 102 97 253 191 188 174 168 174 223 251 263 256 246 238 231 227 219 216 219 230 217 219 231 236 243 243 241 246 261
12 8 56 72 120 314 285 301 193 74 220 319 83 80 81 94 127 118 130 141 163 206 240 240 242 255 260 241 236 228 221 219 226 229 221 215 233 246 242 249 250 244 250 255
76 46 349 356 56 33 348 312 86 192 77 70 70 93 86 69 50 46 44 22 330 225 228 232 235 234 248 242 235 221 209 205 204 198 201 226 254 247 250 247 251 256 261 264
56 146 150 92 145 271 351 65 83 93 77 70 68 66 74 72 66 57 348 328 314 304 279 241 229 228 229 230 223 208 193 195 197 196 196 173 230 295 317 294 269 267 267 267
17 70 103 119 190 292 27 73 65 68 71 70 62 54 54 41 16 12 344 307 306 296 285 277 227 233 227 217 208 202 197 200 196 197 234 250 204 290 294 277 273 265 263 269
144 156 99 251 80 74 61 72 94 77 55 59 69 68 66 39 24 15 340 307 290 300 296 270 224 227 209 194 193 192 197 180 204 231 326 212 210 212 252 260 249 264 254 262
152 179 176 203 149 117 13 100 105 84 81 63 54 26 36 50 351 289 354 298 288 311 301 228 185 177 166 168 170 157 134 117 133 141 178 200 212 228 234 243 254 256 261 262